Overview Statistics Trail Chart Weather Telemetry Raw packets
 

This is the latest recevied weather packets stored in our database for station/object KA1JKB. If no packets are shown the sender has not sent any weather packets the latest 10 day(s).

<< 5 6 7 8 9 10 11 >>
Time Temp. Humidity Pressure Rain* Wind** Luminosity Snow
1788417609 22.78° C 99% 1011.6 hPa 0 mm - 0 W/m² -
1788417304 22.78° C 99% 1011.7 hPa 0 mm - 0 W/m² -
1788416999 23.33° C 99% 1011.9 hPa 0 mm - 0 W/m² -
1788416694 23.33° C 99% 1011.7 hPa 0 mm - 0 W/m² -
1788416389 23.33° C 99% 1011.8 hPa 0 mm - 0 W/m² -
1788416084 23.89° C 99% 1011.8 hPa 0 mm - 0 W/m² -
1788415780 23.89° C 99% 1011.7 hPa 0 mm - 0 W/m² -
1788415480 23.89° C 99% 1011.5 hPa 0 mm - 0 W/m² -
1788415178 23.89° C 99% 1011.8 hPa 0 mm - 0 W/m² -
1788414877 23.89° C 99% 1011.8 hPa 0 mm - 0 W/m² -
1788414576 23.89° C 99% 1011.7 hPa 0 mm - 0 W/m² -
1788414271 23.89° C 99% 1011.8 hPa 0 mm - 0 W/m² -
1788413967 23.89° C 99% 1011.8 hPa 0 mm - 0 W/m² -
1788413667 23.89° C 99% 1011.7 hPa 0 mm - 0 W/m² -
1788413364 23.33° C 99% 1011.7 hPa 0 mm - 0 W/m² -
1788413059 23.33° C 99% 1011.7 hPa 0 mm - 0 W/m² -
1788412754 23.33° C 99% 1011.7 hPa 0 mm - 0 W/m² -
1788412450 23.33° C 98% 1011.8 hPa 0 mm - 0 W/m² -
1788412145 23.33° C 98% 1011.9 hPa 0 mm - 0 W/m² -
1788411844 23.89° C 97% 1011.8 hPa 0 mm - 0 W/m² -
1788411539 23.89° C 97% 1011.8 hPa 0 mm - 0 W/m² -
1788411234 24.44° C 97% 1011.8 hPa 0 mm - 0 W/m² -
1788410931 24.44° C 96% 1011.7 hPa 0 mm - 0 W/m² -
1788410631 25° C 96% 1011.7 hPa 0 mm - 0 W/m² -
1788410328 25° C 96% 1011.5 hPa 0 mm - 0 W/m² -

* Rain latest hour (hover to see other rain measurements)
** Current wind speed in m/s (hover to see current wind gust speed)